This demonstration page uses our WeatherBlox Daily Observations layout. Learn more.

38.89511, -77.03637

Hourly Observations for April 25, 2015

Temp ( °F °C ) Dew Point ( °F °C ) Humidity (%) Winds ( mph kmh ) Pressure ( in mb ) Visibility ( mi km ) Precip ( " mm )
12:52 am 00:52 Mostly Cloudy 50 10 28 -2 43 43 N 7 11 29.97 1015 10 16.09344 0 0
1:52 am 01:52 Partly Cloudy 48 9 30 -1 50 50 NNW 8 13 29.97 1015 10 16.09344 0 0
2:52 am 02:52 Partly Cloudy 48 9 25 -4 40 40 NNW 5 7 29.97 1015 10 16.09344 0 0
3:52 am 03:52 Mostly Cloudy 48 9 30 -1 50 50 NNW 5 7 29.97 1015 10 16.09344 0 0
4:52 am 04:52 Cloudy 48 9 30 -1 50 50 NNE 5 7 29.97 1015 10 16.09344 0 0
5:52 am 05:52 Mostly Cloudy 48 9 23 -5 37 37 NE 9 15 29.97 1015 10 16.09344 0 0
6:52 am 06:52 Cloudy 46 8 28 -2 50 50 ENE 6 9 30 1016 10 16.09344 0 0
7:52 am 07:52 Cloudy 48 9 28 -2 46 46 ENE 6 9 30 1016 10 16.09344 0 0
8:52 am 08:52 Cloudy 48 9 30 -1 50 50 NE 3 6 30 1016 10 16.09344 0 0
9:52 am 09:52 Cloudy 50 10 30 -1 47 47 ENE 7 11 29.97 1015 10 16.09344 0 0
10:52 am 10:52 Cloudy 50 10 30 -1 47 47 S 3 6 29.97 1015 10 16.09344 0 0
11:52 am 11:52 Cloudy 52 11 30 -1 44 44 S 8 13 29.94 1014 10 16.09344 0 0
12:52 pm 12:52 Cloudy 52 11 34 1 50 50 S 7 11 29.91 1013 10 16.09344 0 0
1:52 pm 13:52 Cloudy 52 11 34 1 50 50 SSW 5 7 29.88 1012 10 16.09344 0 0
2:52 pm 14:52 Cloudy 54 12 32 0 44 44 SW 3 6 29.85 1011 10 16.09344 0 0
3:52 pm 15:52 Cloudy 54 12 34 1 47 47 SW 8 13 29.83 1010 10 16.09344 0 0
4:52 pm 16:52 Cloudy 52 11 32 0 47 47 SW 8 13 29.8 1009 10 16.09344 0 0
5:29 pm 17:29 Cloudy with Light Rain 52 11 34 1 50 50 SSW 8 13 29.8 1009 10 16.09344 0.001 0.001
5:52 pm 17:52 Cloudy with Light Rain 48 9 37 3 66 66 SSW 9 15 29.8 1009 10 16.09344 0.001 0.001
6:42 pm 18:42 Cloudy with Light Rain 46 8 39 4 76 76 SW 7 11 29.8 1009 8 12.874752 0 0
6:52 pm 18:52 Cloudy with Light Rain 46 8 39 4 76 76 SW 7 11 29.8 1009 8 12.874752 0.03 0.762
7:52 pm 19:52 Cloudy with Light Rain 46 8 39 4 76 76 WSW 5 7 29.77 1008 7 11.265408 0.04 1.016
8:52 pm 20:52 Cloudy with Light Rain 46 8 37 3 71 71 W 5 7 29.77 1008 10 16.09344 0.04 1.016
9:22 pm 21:22 Cloudy with Light Rain 46 8 39 4 76 76 NNW 7 11 29.77 1008 5 8.04672 0 0
9:52 pm 21:52 Cloudy with Light Rain 45 7 39 4 81 81 NNW 12 19 29.77 1008 9 14.484096 0.05 1.27
10:19 pm 22:19 Cloudy with Light Rain 45 7 39 4 81 81 N 10 17 29.77 1008 8 12.874752 0.04 1.016
10:35 pm 22:35 Cloudy with Light Rain 45 7 39 4 81 81 N 10 17 29.77 1008 9 14.484096 0.05 1.27
10:52 pm 22:52 Cloudy with Light Rain 45 7 39 4 81 81 N 10 17 29.77 1008 9 14.484096 0.06 1.524
11:52 pm 23:52 Cloudy with Light Rain 45 7 39 4 81 81 N 6 9 29.74 1007 8 12.874752 0.04 1.016

Powered by AerisWeather